DateTime,F1_A11,F1_S11,BsB_S11,BsG_S11,BsR_S11,BbsB_S11,BbsG_S11,BbsR_S11,BaB_A11,BaG_A11,BaR_A11,T_S11,U_S11,P_S11,T1_A11
2016-10-09T00:00:00Z,0000380,21000600,,,,,,,,,,26.6,00.6,0666.6,34.8
2016-10-09T00:01:00Z,0000380,21000600,,,,,,,,,,26.7,00.4,0666.6,34.8
2016-10-09T00:02:00Z,0000380,21000600,,,,,,,,,,26.7,00.4,0666.6,34.8
2016-10-09T00:03:00Z,0000380,61000600,,,,,,,,,,26.7,00.4,0666.6,34.8
2016-10-09T00:04:00Z,0000380,41000600,0002.02,0001.94,0001.60,0000.35,0000.05,0000.33,0000.19,0000.22,-000.02,26.7,00.4,0667.6,34.8
2016-10-09T00:05:00Z,0000380,01000600,0003.23,0001.43,0000.87,-000.33,0000.43,0000.16,0000.40,0000.01,0000.45,26.7,00.4,0667.7,34.8
2016-10-09T00:06:00Z,0000380,01000600,0001.47,0002.35,0001.28,0000.25,0000.63,0000.16,-000.18,0000.17,-000.13,26.7,00.4,0667.7,34.8
2016-10-09T00:07:00Z,0000380,01000600,0001.38,0001.72,0001.27,-000.03,0000.06,0000.08,0000.03,-000.02,0000.14,26.8,00.3,0667.7,34.8
2016-10-09T00:08:00Z,0000380,01000600,0003.02,0002.14,0001.35,0000.57,0000.49,-000.03,0000.30,0000.16,0000.04,26.7,00.3,0667.7,34.8
2016-10-09T00:09:00Z,0000380,01000600,0001.79,0001.73,0001.45,0000.97,0000.21,0000.11,-000.08,0000.23,0000.06,26.7,00.3,0667.7,34.8
2016-10-09T00:10:00Z,0000380,01000600,0002.30,0002.10,0001.12,0000.10,0000.19,-000.03,0000.52,-000.02,-000.03,26.8,00.2,0667.7,34.8
2016-10-09T00:11:00Z,0000380,01000600,0002.57,0002.14,0001.63,-000.33,-000.05,0000.30,-000.27,0000.12,-000.18,26.8,00.3,0667.7,34.8
2016-10-09T00:12:00Z,0000380,01000600,0002.02,0001.56,0001.35,0000.13,0000.71,0000.02,0000.17,0000.05,0000.08,26.8,00.3,0667.7,34.8
2016-10-09T00:13:00Z,0000380,01000600,0002.06,0001.56,0001.49,-000.19,-000.11,0000.14,0000.10,0000.16,0000.41,26.8,00.3,0667.7,34.8
2016-10-09T00:14:00Z,0000380,01000600,0002.33,0001.55,0001.07,0000.00,-000.02,0000.08,0000.07,0000.03,-000.03,26.8,00.3,0667.7,34.8
2016-10-09T00:15:00Z,0000380,01000600,0003.21,0001.63,0001.13,0000.10,0000.28,-000.24,0000.17,0000.14,0000.13,26.8,00.2,0667.7,34.8
2016-10-09T00:16:00Z,0000380,01000600,0002.38,0001.00,0000.76,-000.08,0000.22,0000.16,0000.16,0000.06,-000.17,26.8,00.2,0667.7,34.8
2016-10-09T00:17:00Z,0000380,01000600,0002.40,0001.52,0001.00,-000.11,0000.84,0000.25,0000.05,0000.08,0000.21,26.8,00.2,0667.7,34.8
2016-10-09T00:18:00Z,0000380,01000600,0001.52,0002.41,0001.27,0000.03,0000.58,0000.21,0000.18,0000.24,0000.06,26.8,00.2,0667.7,34.8
2016-10-09T00:19:00Z,0000380,01000600,0001.73,0002.11,0001.05,0000.30,0000.32,0000.35,0000.21,-000.01,0000.41,26.8,00.2,0667.7,34.8
2016-10-09T00:20:00Z,0000380,01000600,0001.93,0002.11,0001.20,-000.13,0000.09,0000.33,-000.01,0000.11,-000.23,26.8,00.2,0667.7,34.8
2016-10-09T00:21:00Z,0000380,01000600,0001.71,0001.71,0001.45,0000.21,0000.73,0000.43,0000.20,0000.10,0000.12,26.8,00.2,0667.7,34.8
2016-10-09T00:22:00Z,0000380,01000600,0002.65,0002.65,0001.28,-000.06,0000.00,0000.11,0000.14,0000.31,0000.20,26.8,00.1,0667.7,34.8
2016-10-09T00:23:00Z,0000380,01000600,0002.67,0001.65,0001.27,0000.36,0000.09,0000.43,-000.05,-000.00,0000.18,26.8,00.2,0667.8,34.8
2016-10-09T00:24:00Z,0000380,01000600,0001.16,0001.73,0001.35,0000.49,0000.46,0000.25,0000.37,0000.08,-000.17,26.8,00.2,0667.8,34.8
2016-10-09T00:25:00Z,0000380,01000600,0000.93,0002.15,0000.88,0000.06,0000.43,0000.19,0000.27,-000.08,0000.02,26.8,00.2,0667.8,34.8
2016-10-09T00:26:00Z,0000380,01000600,0002.48,0001.39,0001.75,-000.27,0000.36,0000.29,-000.06,0000.31,0000.13,26.8,00.1,0667.8,34.8
2016-10-09T00:27:00Z,0000380,01000600,0001.58,0001.41,0001.46,-000.10,0000.16,0000.14,0000.26,0000.16,0000.31,26.8,00.2,0667.8,34.8
2016-10-09T00:28:00Z,0000380,01000600,0001.76,0001.73,0001.77,-000.10,0000.36,0000.60,0000.08,-000.07,0000.11,26.8,00.2,0667.8,34.8
2016-10-09T00:29:00Z,0000380,01000600,0001.69,0001.80,0001.43,-000.08,0000.39,0000.02,-000.04,0000.09,-000.12,26.8,00.1,0667.8,34.8
2016-10-09T00:30:00Z,0000380,01000600,0002.20,0001.66,0000.90,-000.14,0000.24,0000.33,0000.10,0000.23,0000.06,26.8,00.2,0667.8,34.8
2016-10-09T00:31:00Z,0000380,01000600,0002.22,0000.87,0001.23,0000.02,-000.27,0000.36,0000.49,-000.08,-000.26,26.8,00.2,0667.8,34.8
2016-10-09T00:32:00Z,0000380,01000600,0001.83,0001.32,0001.27,0000.74,0000.28,0000.33,0000.07,0000.51,0000.35,26.8,00.1,0667.8,34.8
2016-10-09T00:33:00Z,0000380,01000600,0002.14,0000.95,0001.62,0000.52,0000.27,0000.11,-000.09,-000.25,0000.15,26.8,00.1,0667.8,34.8
2016-10-09T00:34:00Z,0000380,01000600,0002.12,0000.30,0001.48,-000.43,0000.16,-000.25,0000.10,0000.25,-000.07,26.8,00.2,0667.8,34.8
2016-10-09T00:35:00Z,0000380,01000600,0002.65,0001.83,0001.32,-000.25,-000.17,0000.56,0000.19,-000.13,0000.25,26.8,00.1,0667.8,34.8
2016-10-09T00:36:00Z,0000380,01000600,0001.70,0002.04,0001.33,0000.16,0000.41,-000.13,0000.11,0000.20,-000.08,26.8,00.1,0667.8,34.8
2016-10-09T00:37:00Z,0000380,01000600,0001.56,0001.60,0001.06,0000.46,0000.49,0000.00,0000.21,0000.24,0000.28,26.8,00.1,0667.8,34.8
2016-10-09T00:38:00Z,0000380,01000600,0002.45,0001.10,0001.14,0000.44,0000.36,0000.17,0000.15,0000.16,-000.17,26.8,00.1,0667.8,34.8
2016-10-09T00:39:00Z,0000380,01000600,0001.85,0001.54,0001.17,-000.22,0000.39,0000.13,0000.09,-000.08,0000.15,26.8,00.1,0667.9,34.8
2016-10-09T00:40:00Z,0000380,01000600,0002.33,0001.35,0001.23,0000.35,0000.38,-000.10,0000.01,0000.08,0000.23,26.8,00.1,0667.9,34.8
2016-10-09T00:41:00Z,0000380,01000600,0001.73,0001.22,0001.48,-000.27,0000.03,0000.14,0000.30,0000.36,-000.02,26.8,00.1,0667.9,34.8
2016-10-09T00:42:00Z,0000380,01000600,0001.32,0001.23,0001.65,0000.44,0000.50,-000.13,0000.13,-000.11,-000.04,26.8,00.1,0667.8,34.8
2016-10-09T00:43:00Z,0000380,01000600,0002.26,0001.63,0001.17,-000.67,0000.84,0000.13,-000.00,0000.47,0000.12,26.8,00.1,0667.8,34.8
2016-10-09T00:44:00Z,0000380,01000600,0001.78,0001.82,0001.38,-000.11,0000.21,0000.35,0000.19,-000.20,0000.10,26.8,00.1,0667.9,34.8
2016-10-09T00:45:00Z,0000380,01000600,0002.06,0001.89,0001.33,-000.21,0000.14,0000.46,0000.27,0000.06,-000.07,26.8,00.1,0667.9,34.8
2016-10-09T00:46:00Z,0000380,01000600,0000.94,0001.52,0001.22,-000.21,0000.22,0000.35,-000.23,0000.20,0000.36,26.8,00.1,0667.9,34.8
2016-10-09T00:47:00Z,0000380,01000600,0002.48,0001.64,0001.35,-000.33,0000.05,0000.00,0000.17,0000.08,0000.19,26.8,00.1,0667.9,34.8
2016-10-09T00:48:00Z,0000380,01000600,0001.65,0001.96,0000.76,-000.17,0000.35,0000.03,0000.29,0000.15,-000.22,26.8,00.1,0667.9,34.8
2016-10-09T00:49:00Z,0000380,01000600,0001.84,0001.32,0001.41,0000.35,0000.21,0000.24,-000.03,0000.16,0000.04,26.8,00.1,0667.9,34.8
2016-10-09T00:50:00Z,0000380,01000600,0001.80,0001.80,0001.13,0000.05,0000.11,0000.21,0000.09,-000.14,0000.07,26.8,00.1,0667.9,34.8
2016-10-09T00:51:00Z,0000380,01000600,0001.04,0001.52,0001.13,0000.36,0000.44,0000.24,0000.36,0000.18,0000.38,26.8,00.2,0667.9,34.8
2016-10-09T00:52:00Z,0000380,01000600,0001.74,0001.49,0001.00,0000.10,0000.17,0000.51,0000.25,0000.31,-000.15,26.8,00.1,0667.8,34.8
2016-10-09T00:53:00Z,0000380,01000600,0001.26,0001.66,0000.83,-000.03,0000.14,0000.11,-000.05,-000.10,0000.39,26.8,00.2,0667.8,34.8
2016-10-09T00:54:00Z,0000380,01000600,0001.99,0001.42,0000.92,0000.14,0000.44,0000.19,0000.13,0000.29,-000.00,26.8,00.2,0667.8,34.8
2016-10-09T00:55:00Z,0000380,01000600,0001.54,0001.16,0001.45,-000.71,0000.57,0000.36,0000.04,-000.08,-000.09,26.8,00.1,0667.9,34.8
2016-10-09T00:56:00Z,0000380,01000600,0001.76,0000.99,0001.41,-000.60,0000.30,0000.49,0000.10,-000.17,0000.36,26.8,00.1,0667.8,34.8
2016-10-09T00:57:00Z,0000380,41000600,,,,,,,,,,,,0667.9,34.8
2016-10-09T00:58:00Z,0000380,61000600,,,,,,,,,,26.8,00.1,0666.8,34.8
2016-10-09T00:59:00Z,0000380,21000600,,,,,,,,,,26.8,00.1,0666.8,34.8
2016-10-09T01:00:00Z,0000380,21000600,,,,,,,,,,26.8,00.1,0666.8,34.7
2016-10-09T01:01:00Z,0000380,21000600,,,,,,,,,,26.8,00.0,0666.8,34.7
2016-10-09T01:02:00Z,0000380,21000600,,,,,,,,,,26.8,00.0,0666.8,34.7
2016-10-09T01:03:00Z,0000380,61000600,,,,,,,,,,26.8,00.0,0666.8,34.7
2016-10-09T01:04:00Z,0000380,41000600,0002.30,0001.37,0000.67,-000.36,0000.55,0000.16,0000.12,0000.14,-000.54,26.8,00.0,0667.7,34.7
2016-10-09T01:05:00Z,0000380,01000600,0001.83,0001.06,0001.18,0000.27,0000.36,0000.30,0000.13,0000.14,0000.26,26.8,00.1,0667.8,34.7
2016-10-09T01:06:00Z,0000380,01000600,0001.94,0001.52,0001.30,0000.68,0000.05,0000.22,0000.19,0000.10,0000.22,26.8,00.1,0667.8,34.7
2016-10-09T01:07:00Z,0000380,01000600,0002.31,0001.20,0001.06,0000.35,0000.00,0000.17,-000.01,0000.09,-000.19,26.8,00.1,0667.7,34.7
2016-10-09T01:08:00Z,0000380,01000600,0002.11,0002.12,0000.52,0000.06,-000.28,-000.27,-000.00,0000.34,0000.30,26.8,00.1,0667.7,34.7
2016-10-09T01:09:00Z,0000380,01000600,0001.88,0001.36,0000.76,0000.30,0000.27,0000.25,0000.24,-000.06,0000.07,26.8,00.1,0667.7,34.7
2016-10-09T01:10:00Z,0000380,01000600,0001.19,0001.32,0000.62,-000.57,-000.27,0000.11,0000.11,0000.05,0000.04,26.8,00.1,0667.7,34.7
2016-10-09T01:11:00Z,0000380,01000600,0001.63,0001.43,0000.46,0000.49,-000.24,-000.30,-000.08,0000.03,0000.00,26.8,00.1,0667.7,34.7
2016-10-09T01:12:00Z,0000380,01000600,0002.99,0001.36,0000.78,0000.40,0000.06,-000.21,0000.15,0000.10,-000.04,26.8,00.1,0667.7,34.7
2016-10-09T01:13:00Z,0000380,01000600,0000.96,0001.22,0000.96,0000.21,0000.11,-000.14,0000.41,0000.07,0000.18,26.8,00.1,0667.8,34.7
2016-10-09T01:14:00Z,0000380,01000600,0002.22,0001.47,0000.39,-000.41,-000.08,0000.44,-000.31,0000.14,0000.05,26.8,00.1,0667.8,34.7
2016-10-09T01:15:00Z,0000380,01000600,0001.99,0001.64,0001.10,-000.25,-000.13,0000.30,0000.25,0000.02,0000.11,26.8,00.1,0667.8,34.7
2016-10-09T01:16:00Z,0000380,01000600,0001.48,0001.56,0001.17,-000.25,0000.47,0000.03,0000.26,0000.27,-000.04,26.7,00.1,0667.8,34.7
2016-10-09T01:17:00Z,0000380,01000600,0001.18,0001.67,0000.57,0000.35,0000.17,-000.17,-000.05,-000.10,-000.11,26.8,00.1,0667.8,34.7
2016-10-09T01:18:00Z,0000380,01000600,0001.60,0000.76,0000.79,-000.38,0000.02,-000.19,0000.19,-000.04,0000.06,26.7,00.1,0667.8,34.7
2016-10-09T01:19:00Z,0000380,01000600,0001.48,0001.24,0000.92,0000.24,0000.00,0000.41,0000.02,0000.41,0000.45,26.7,00.1,0667.8,34.7
2016-10-09T01:20:00Z,0000380,01000600,0002.50,0001.70,0001.13,-000.33,0000.17,0000.02,0000.07,-000.07,-000.12,26.7,00.1,0667.8,34.7
2016-10-09T01:21:00Z,0000380,01000600,0001.17,0000.94,0000.99,-000.14,-000.21,-000.06,0000.04,0000.07,0000.16,26.7,00.1,0667.8,34.7
2016-10-09T01:22:00Z,0000380,01000600,0001.77,0001.27,0000.23,0000.51,-000.03,-000.11,0000.04,0000.14,-000.27,26.7,00.1,0667.8,34.7
2016-10-09T01:23:00Z,0000380,01000600,0001.84,0001.31,0000.53,0000.00,-000.38,-000.30,0000.12,-000.03,0000.07,26.7,00.1,0667.8,34.7
2016-10-09T01:24:00Z,0000380,01000600,0001.90,0001.42,0000.79,-000.54,-000.32,-000.32,0000.06,0000.10,0000.23,26.7,00.1,0667.8,34.7
2016-10-09T01:25:00Z,0000380,01000600,0000.89,0001.23,0001.24,0000.05,0000.03,0000.08,0000.01,0000.01,-000.25,26.7,00.0,0667.8,34.7
2016-10-09T01:26:00Z,0000380,01000600,0001.67,0001.28,0000.98,-000.21,-000.19,0000.03,0000.24,0000.15,0000.53,26.7,00.1,0667.7,34.7
2016-10-09T01:27:00Z,0000380,01000600,0001.28,0001.83,0000.57,-000.17,0000.49,-000.02,0000.14,0000.07,-000.10,26.7,00.1,0667.7,34.7
2016-10-09T01:28:00Z,0000380,01000600,0002.12,0001.73,0000.40,0000.29,-000.16,0000.11,0000.01,0000.10,0000.12,26.7,00.1,0667.7,34.7
2016-10-09T01:29:00Z,0000380,01000600,0001.69,0001.10,0000.91,0000.25,-000.24,0000.00,0000.35,0000.00,0000.22,26.7,00.1,0667.7,34.7
2016-10-09T01:30:00Z,0000380,01000600,0000.72,0001.17,0000.67,-000.14,-000.02,0000.21,-000.20,0000.06,-000.04,26.7,00.1,0667.7,34.7
2016-10-09T01:31:00Z,0000380,01000600,0000.23,0001.53,0000.60,0000.02,-000.36,0000.22,0000.31,0000.18,0000.21,26.7,00.2,0667.7,34.7
2016-10-09T01:32:00Z,0000380,01000600,0001.60,0001.14,0000.49,-000.33,-000.02,0000.02,0000.16,0000.12,0000.01,26.7,00.1,0667.7,34.7
2016-10-09T01:33:00Z,0000380,01000600,0001.34,0000.92,0000.82,0000.27,0000.02,-000.16,-000.10,0000.28,0000.08,26.7,00.1,0667.6,34.7
2016-10-09T01:34:00Z,0000380,01000600,0001.48,0001.14,0000.96,0000.38,-000.39,0000.06,0000.37,-000.18,-000.04,26.7,00.1,0667.7,34.7
2016-10-09T01:35:00Z,0000380,01000600,0000.68,0000.88,0000.84,0000.00,0000.03,0000.17,-000.10,0000.16,0000.04,26.7,00.1,0667.7,34.7
2016-10-09T01:36:00Z,0000380,01000600,0000.57,0001.37,0000.86,-000.14,0000.19,-000.06,-000.05,-000.11,-000.07,26.7,00.1,0667.7,34.7
2016-10-09T01:37:00Z,0000380,01000600,0000.48,0001.01,0001.17,0000.65,0000.24,-000.13,0000.03,0000.01,0000.22,26.7,00.1,0667.7,34.7
2016-10-09T01:38:00Z,0000380,01000600,0001.11,0001.24,0000.87,0000.19,0000.38,0000.11,0000.11,0000.13,-000.19,26.7,00.1,0667.7,34.7
2016-10-09T01:39:00Z,0000380,01000600,0001.17,0000.48,0001.12,-000.14,-000.30,0000.05,0000.06,-000.01,0000.06,26.7,00.1,0667.7,34.7
2016-10-09T01:40:00Z,0000380,01000600,0000.91,0000.73,0000.67,0000.03,-000.11,0000.03,0000.39,0000.01,0000.12,26.7,00.1,0667.7,34.7
2016-10-09T01:41:00Z,0000380,01000600,0002.32,0001.25,0000.53,0000.02,0000.16,-000.08,-000.12,0000.08,0000.03,26.7,00.1,0667.7,34.7
2016-10-09T01:42:00Z,0000380,01000600,0000.65,0001.15,0000.68,-000.33,-000.09,0000.27,0000.38,0000.30,-000.08,26.7,00.1,0667.7,34.7
2016-10-09T01:43:00Z,0000380,01000600,0001.32,0000.95,0000.35,-000.08,-000.14,-000.02,-000.24,-000.13,0000.37,26.7,00.1,0667.7,34.7
2016-10-09T01:44:00Z,0000380,01000600,0001.30,0000.86,0000.92,0000.14,0000.32,0000.17,0000.36,0000.19,-000.03,26.7,00.1,0667.6,34.7
2016-10-09T01:45:00Z,0000380,01000600,0001.23,0001.02,0000.61,-000.08,-000.17,-000.38,-000.04,0000.06,0000.04,26.7,00.1,0667.7,34.7
2016-10-09T01:46:00Z,0000380,01000600,0000.40,0000.55,0000.12,-000.03,-000.06,0000.10,0000.03,0000.10,0000.02,26.7,00.1,0667.6,34.7
2016-10-09T01:47:00Z,0000380,01000600,0001.41,0000.51,0000.21,0000.10,0000.11,-000.27,0000.01,0000.12,0000.31,26.7,00.1,0667.6,34.7
2016-10-09T01:48:00Z,0000380,01000600,0001.12,0000.85,0000.99,-000.08,0000.25,-000.21,0000.28,0000.07,0000.17,26.7,00.1,0667.6,34.7
2016-10-09T01:49:00Z,0000380,01000600,-000.16,0000.95,0000.44,0000.14,-000.13,-000.19,-000.12,-000.14,-000.58,26.7,00.1,0667.6,34.7
2016-10-09T01:50:00Z,0000380,01000600,0001.21,0000.84,0000.93,-000.25,-000.27,0000.40,-000.04,0000.14,0000.05,26.7,00.1,0667.6,34.7
2016-10-09T01:51:00Z,0000380,01000600,0001.02,0000.94,0000.88,-000.05,-000.28,0000.21,0000.12,0000.10,0000.24,26.7,00.1,0667.6,34.7
2016-10-09T01:52:00Z,0000380,01000600,0000.64,0000.80,0000.77,-000.11,-000.38,0000.13,0000.05,0000.02,0000.17,26.7,00.1,0667.6,34.7
2016-10-09T01:53:00Z,0000380,01000600,0000.64,0000.60,0000.86,0000.32,-000.05,-000.02,-000.05,0000.04,-000.09,26.7,00.1,0667.6,34.7
2016-10-09T01:54:00Z,0000380,01000600,0001.19,0000.65,0000.77,0000.33,0000.21,-000.02,0000.16,-000.09,0000.29,26.7,00.1,0667.6,34.7
2016-10-09T01:55:00Z,0000380,01000600,0001.30,0001.15,0000.38,0000.02,0000.17,0000.05,0000.01,0000.11,-000.20,26.7,00.1,0667.6,34.7
2016-10-09T01:56:00Z,0000380,01000600,0001.28,0001.13,0000.42,-000.54,0000.14,0000.40,0000.14,0000.03,0000.13,26.7,00.1,0667.6,34.7
2016-10-09T01:57:00Z,0000380,41000600,,,,,,,,,,,,0667.6,34.7
2016-10-09T01:58:00Z,0000380,61000600,,,,,,,,,,26.5,00.0,0666.6,34.7
2016-10-09T01:59:00Z,0000380,21000600,,,,,,,,,,26.5,00.0,0666.6,34.7
2016-10-09T02:00:00Z,0000380,21000600,,,,,,,,,,26.5,00.0,0666.6,34.7
2016-10-09T02:01:00Z,0000380,21000600,,,,,,,,,,26.5,00.0,0666.6,34.7
2016-10-09T02:02:00Z,0000380,21000600,,,,,,,,,,26.5,00.0,0666.6,34.7
2016-10-09T02:03:00Z,0000380,61000600,,,,,,,,,,26.6,00.0,0666.6,34.7
2016-10-09T02:04:00Z,0000380,41000600,-000.53,0000.64,0000.34,0000.25,0000.11,-000.21,0000.22,-000.09,-000.11,26.7,00.1,0667.6,34.7
2016-10-09T02:05:00Z,0000380,01000600,0002.19,0000.29,0000.17,0000.70,-000.06,0000.13,-000.10,-000.10,-000.06,26.7,00.1,0667.7,34.7
2016-10-09T02:06:00Z,0000380,01000600,0001.60,0000.67,0000.13,0000.95,0000.36,-000.02,0000.09,0000.23,0000.12,26.6,00.1,0667.7,34.7
2016-10-09T02:07:00Z,0000380,01000600,0001.86,0001.14,0000.03,0000.16,0000.21,-000.17,-000.08,-000.07,-000.06,26.6,00.1,0667.7,34.7
2016-10-09T02:08:00Z,0000380,01000600,0001.18,0001.31,0000.58,-000.05,0000.58,0000.25,0000.17,-000.00,0000.55,26.7,00.1,0667.6,34.7
2016-10-09T02:09:00Z,0000380,01000600,0002.11,0001.09,-000.20,0000.06,-000.14,-000.41,0000.20,0000.20,-000.14,26.7,00.1,0667.7,34.7
2016-10-09T02:10:00Z,0000380,01000600,0001.57,0000.72,-000.03,0000.49,-000.06,-000.33,-000.15,-000.02,-000.45,26.6,00.1,0667.6,34.7
2016-10-09T02:11:00Z,0000380,01000600,0001.54,0000.62,0000.38,0000.89,-000.14,-000.13,0000.11,0000.04,0000.36,26.6,00.1,0667.6,34.7
2016-10-09T02:12:00Z,0000380,01000600,0001.24,0000.78,0000.28,0000.14,0000.22,-000.36,0000.13,0000.09,-000.07,26.6,00.1,0667.7,34.7
2016-10-09T02:13:00Z,0000380,01000600,0001.47,0000.69,0000.49,0000.59,-000.06,-000.24,0000.24,-000.11,0000.31,26.6,00.1,0667.7,34.7
2016-10-09T02:14:00Z,0000380,01000600,0001.23,0000.93,0000.18,0000.05,-000.02,-000.19,-000.14,0000.08,-000.37,26.6,00.1,0667.7,34.7
2016-10-09T02:15:00Z,0000380,01000600,0000.49,0000.53,0000.31,0001.17,0000.00,0000.06,-000.06,0000.04,0000.17,26.6,00.1,0667.7,34.7
2016-10-09T02:16:00Z,0000380,01000600,0001.55,0001.01,-000.10,0000.48,0000.35,0000.05,-000.03,-000.01,0000.14,26.6,00.1,0667.7,34.7
2016-10-09T02:17:00Z,0000380,01000600,0001.18,0000.41,0000.38,0000.00,0000.19,-000.21,-000.03,0000.00,0000.18,26.6,00.1,0667.7,34.7
2016-10-09T02:18:00Z,0000380,01000600,0001.69,0000.39,0000.11,0000.17,0000.05,-000.30,0000.12,0000.10,-000.30,26.6,00.1,0667.7,34.7
2016-10-09T02:19:00Z,0000380,01000600,-000.15,0000.07,0000.47,0000.65,0000.27,-000.17,0000.17,-000.15,0000.15,26.6,00.1,0667.7,34.7
2016-10-09T02:20:00Z,0000380,01000600,0001.07,0000.57,0000.37,0000.11,-000.60,-000.11,-000.13,0000.16,-000.25,26.5,00.1,0667.7,34.7
2016-10-09T02:21:00Z,0000380,01000600,0000.90,0000.88,0000.47,0000.00,0000.36,0000.06,0000.22,0000.01,0000.32,26.5,00.0,0667.7,34.7
2016-10-09T02:22:00Z,0000380,01000600,0001.14,0001.08,0000.15,0000.17,-000.13,-000.22,-000.12,0000.04,-000.21,26.5,00.1,0667.6,34.7
2016-10-09T02:23:00Z,0000380,01000600,0000.95,0000.91,0000.26,0000.05,-000.05,0000.62,0000.12,0000.03,0000.08,26.5,00.0,0667.6,34.7
2016-10-09T02:24:00Z,0000380,01000600,0000.56,0000.33,0000.11,0000.60,-000.02,-000.21,0000.25,0000.02,0000.12,26.5,00.0,0667.6,34.7
2016-10-09T02:25:00Z,0000380,01000600,0000.83,0000.54,-000.08,0000.85,-000.05,-000.08,-000.07,-000.06,-000.02,26.5,00.0,0667.7,34.7
2016-10-09T02:26:00Z,0000380,01000600,0001.26,0000.71,0000.04,0000.57,0000.13,-000.02,0000.02,0000.13,0000.15,26.5,00.0,0667.7,34.7
2016-10-09T02:27:00Z,0000380,01000600,0001.75,0000.61,0000.50,0000.19,-000.11,-000.11,-000.14,0000.03,0000.22,26.5,00.0,0667.7,34.7
2016-10-09T02:28:00Z,0000380,01000600,0001.12,0000.60,-000.08,0000.97,0000.27,-000.05,0000.15,-000.02,-000.18,26.5,00.0,0667.7,34.7
2016-10-09T02:29:00Z,0000380,01000600,0000.95,0000.52,0000.23,-000.05,0000.30,-000.17,-000.04,0000.15,-000.06,26.5,00.0,0667.7,34.7
2016-10-09T02:30:00Z,0000380,01000600,0001.11,0000.46,0000.29,0000.63,-000.22,0000.16,0000.20,0000.06,0000.02,26.5,00.0,0667.7,34.7
2016-10-09T02:31:00Z,0000380,01000600,0000.78,0000.52,0000.30,0000.73,0000.36,0000.05,0000.02,-000.01,0000.04,26.5,00.1,0667.6,34.7
2016-10-09T02:32:00Z,0000380,01000600,0000.35,0000.39,-000.06,0000.21,-000.11,-000.17,0000.12,0000.06,0000.10,26.5,00.0,0667.6,34.7
2016-10-09T02:33:00Z,0000380,01000600,0002.00,0000.29,0000.33,0000.21,0000.28,-000.27,0000.12,0000.18,0000.25,26.5,00.0,0667.6,34.7
2016-10-09T02:34:00Z,0000380,01000600,0001.00,0001.74,0000.54,0000.63,0000.11,-000.03,-000.13,0000.01,0000.01,26.5,00.1,0667.6,34.7
2016-10-09T02:35:00Z,0000380,01000600,0001.01,0000.58,0000.26,0000.13,-000.03,-000.13,0000.04,-000.08,-000.09,26.5,00.1,0667.6,34.7
2016-10-09T02:36:00Z,0000380,01000600,0000.79,-000.13,0000.03,0000.68,0000.28,-000.03,0000.01,0000.08,-000.07,26.5,00.1,0667.6,34.7
2016-10-09T02:37:00Z,0000380,01000600,0000.87,0000.67,0000.23,0000.78,0000.28,0000.17,-000.03,-000.12,0000.21,26.5,00.0,0667.6,34.7
2016-10-09T02:38:00Z,0000380,01000600,0001.89,0000.77,-000.02,0000.35,0000.35,-000.16,0000.10,0000.04,0000.13,26.5,00.0,0667.6,34.7
2016-10-09T02:39:00Z,0000380,01000600,0000.16,0000.69,-000.11,0000.54,-000.43,-000.30,0000.06,0000.12,-000.22,26.5,00.0,0667.6,34.7
2016-10-09T02:40:00Z,0000380,01000600,-000.12,0001.11,0000.24,0000.52,-000.03,-000.19,0000.02,0000.07,0000.29,26.5,00.0,0667.6,34.7
2016-10-09T02:41:00Z,0000380,01000600,0000.74,0000.85,0000.14,0000.05,0000.09,0000.06,0000.02,0000.05,-000.27,26.5,00.1,0667.6,34.7
2016-10-09T02:42:00Z,0000380,01000600,0000.45,0000.62,0000.41,0000.92,-000.02,0000.11,0000.08,-000.00,0000.17,26.5,00.1,0667.6,34.7
2016-10-09T02:43:00Z,0000380,01000600,0001.32,0000.79,-000.13,0000.40,-000.11,-000.55,0000.04,0000.13,-000.00,26.5,00.0,0667.6,34.7
2016-10-09T02:44:00Z,0000380,01000600,0000.14,0000.31,0000.33,0000.25,-000.02,0000.05,-000.21,-000.02,-000.31,26.5,00.0,0667.6,34.7
2016-10-09T02:45:00Z,0000380,01000600,0001.00,0000.35,0000.03,0000.71,-000.25,-000.30,0000.31,0000.02,0000.02,26.5,00.1,0667.6,34.7
2016-10-09T02:46:00Z,0000380,01000600,0001.44,0000.89,0000.12,0000.46,0000.39,0000.06,-000.13,-000.05,0000.13,26.5,00.0,0667.6,34.7
2016-10-09T02:47:00Z,0000380,01000600,0001.64,0000.45,0000.46,0000.52,-000.03,-000.17,0000.24,-000.03,-000.01,26.5,00.0,0667.6,34.7
2016-10-09T02:48:00Z,0000380,01000600,0000.32,0000.48,-000.02,-000.21,-000.03,-000.30,0000.11,0000.15,0000.11,26.5,00.0,0667.7,34.7
2016-10-09T02:49:00Z,0000380,01000600,0001.24,0001.17,0000.28,0000.02,0000.32,0000.08,-000.22,-000.03,0000.00,26.5,00.0,0667.7,34.7
2016-10-09T02:50:00Z,0000380,01000600,0000.90,0000.58,0000.36,-000.28,-000.02,-000.13,0000.12,0000.17,0000.02,26.5,00.0,0667.7,34.7
2016-10-09T02:51:00Z,0000380,01000600,0000.93,0000.49,-000.27,0000.06,0000.14,-000.19,0000.12,0000.04,0000.26,26.5,00.1,0667.7,34.7
2016-10-09T02:52:00Z,0000380,01000600,0000.82,0000.96,0000.12,0000.35,-000.02,-000.08,-000.11,-000.02,0000.14,26.4,00.0,0667.7,34.7
2016-10-09T02:53:00Z,0000380,01000600,0000.20,0000.82,0000.32,0000.25,0000.14,-000.10,-000.04,-000.07,-000.08,26.5,00.0,0667.7,34.7
2016-10-09T02:54:00Z,0000380,01000600,0001.54,0001.17,-000.04,-000.06,0000.05,-000.54,0000.23,0000.09,-000.42,26.5,00.0,0667.6,34.7
2016-10-09T02:55:00Z,0000380,01000600,0000.77,0001.08,0000.45,-000.19,0000.28,0000.02,-000.35,0000.06,0000.45,26.4,00.1,0667.7,34.7
2016-10-09T02:56:00Z,0000380,01000600,0001.79,0000.95,0000.20,0000.63,0000.14,-000.41,0000.28,-000.03,-000.09,26.5,00.0,0667.7,34.7
2016-10-09T02:57:00Z,0000380,41000600,,,,,,,,,,,,0667.6,34.7
2016-10-09T02:58:00Z,0000380,61000600,,,,,,,,,,26.3,00.0,0666.6,34.7
2016-10-09T02:59:00Z,0000380,21000600,,,,,,,,,,26.3,00.0,0666.6,34.7
2016-10-09T03:00:00Z,0000380,21000600,,,,,,,,,,26.3,00.0,0666.6,34.7
2016-10-09T03:01:00Z,0000380,21000600,,,,,,,,,,26.3,00.0,0666.6,34.7
2016-10-09T03:02:00Z,0000380,21000600,,,,,,,,,,26.3,00.0,0666.6,34.7
2016-10-09T03:03:00Z,0000380,61000600,,,,,,,,,,26.4,00.0,0666.6,34.7
2016-10-09T03:04:00Z,0000380,41000600,-000.21,0000.26,0000.04,-000.48,-000.08,0000.16,0000.17,0000.07,0000.49,26.5,00.0,0667.5,34.7
2016-10-09T03:05:00Z,0000380,01000600,-000.14,0000.62,0000.16,-000.16,0000.60,0000.14,-000.12,0000.03,-000.56,26.5,00.1,0667.6,34.7
2016-10-09T03:06:00Z,0000380,01000600,0000.97,0000.38,-000.11,0000.10,0000.02,-000.65,-000.01,0000.12,0000.22,26.5,00.1,0667.6,34.7
2016-10-09T03:07:00Z,0000380,01000600,0000.38,0000.66,0000.04,-000.22,0000.09,-000.06,0000.03,0000.11,0000.23,26.4,00.0,0667.7,34.7
2016-10-09T03:08:00Z,0000380,01000600,0000.28,0001.11,0000.18,0000.22,-000.20,-000.08,0000.21,-000.20,-000.10,26.4,00.0,0667.6,34.7
2016-10-09T03:09:00Z,0000380,01000600,0000.53,0000.85,0000.30,0000.28,0000.02,0000.32,-000.02,0000.10,0000.07,26.4,00.0,0667.6,34.7
2016-10-09T03:10:00Z,0000380,01000600,0000.15,0000.80,0000.15,0000.22,-000.02,-000.14,0000.20,0000.23,-000.04,26.4,00.0,0667.7,34.7
2016-10-09T03:11:00Z,0000380,01000600,0000.68,0000.15,0000.51,-000.13,0000.16,0000.13,-000.11,-000.09,0000.11,26.4,00.0,0667.6,34.7
2016-10-09T03:12:00Z,0000380,01000600,-000.38,0001.07,0000.66,0000.79,-000.16,-000.11,0000.00,0000.05,-000.14,26.4,00.0,0667.6,34.7